Showing default

COSMOS 2093, 20738

Orbit data source: Space-Track

COSMOS 2093, 20738 is a payload satellite owned by UNKS (CIS) in LEO that was launched on Wed, 08 Aug 1990 UTC via a TSIKLON-3 launch vehicle from the Plesetsk Missile And Space Complex (PKMTR). Payload-class satellites include a variety of spacecraft equipped with specific instruments for various scientific and technological missions. These include communications satellites like Starlink; space stations such as the ISS; scientific satellites like the Hubble; Earth observation satellites from companies like Planet Labs, Umbra, and HawkEye 360; GPS; miniature CubeSats for education and research; and military/defense satellites.

Loading next visibility...
Identifier
20738, 1990-070D
Orbit
LEO
Country
Flag of CISCIS
Related business
Manufacturer
NPO PM
Mission
Defense Communications
Bus & Motor
STRELA-3, Unknown motor
Mass
225 kg wet, 225 kg dry
Launch date (UTC)
1990-08-08 (35 years ago)
Launch vehicle
TSIKLON-3
Launch site
Plesetsk Missile And Space Complex (PKMTR)
Object type
Payload
Rocket body
Debris
Shape & HBR
Cyl, 0.8 m
Radar Cross Section
1.257 m², Large (>1 m²)

Expand to show TLE details & history
Last TLE update: 22 hours ago

TLE from 22 hours ago
0 COSMOS 2093
1 20738U 90070D   25257.56581567  .00000007  00000-0 -17236-4 0  9991
2 20738  82.5722 117.4564 0009295  19.2670  44.1807 12.64084972619559
Epoch: 2025-09-14T13:34Z
TLE epoch observation values (Epoch: 2025-09-14T13:34:46.473Z)
Latitude
62.65733°
Longitude
-65.49052°
Altitude
1,411.662 km
Speed
7.163 km/s
True Right ascension
08h 47m 56s
True Declination
62° 31' 43"
Sunlit
Object was in daylight at epoch
Visualization orbit readout
Latitude
Unknown
Longitude
Unknown
Altitude
Unknown
Speed
Unknown
Apparent Right ascension
Unknown
Apparent Declination
Unknown
Sunlit
N/A
Visualization observer readout
Local Sidereal Time
03:52:09
Azimuth
Unknown
Elevation
Unknown
Doppler factor
Unknown
Orbital elements
Apogee altitude
1,410.68 km
Perigee altitude
1,396.214 km
Semi-major axis
7,781.584 km
Eccentricity
0.00093
Inclination
82.5722°
RAAN
117.4564°
Arg. of periapsis
19.267°
True anomaly
44.25499°
Mean anomaly
44.1807°
Eccentric anomaly
44.21784°
Mean motion
3.16185 °/min
Orbital period
113.86 mins
BSTAR
-0.000017236
Loading maneuver chart data...
Computing Atmospheric mass density...
Loading historical data...
Loading historical data...
Loading historical data...
Loading historical data...
Loading historical data...
Loading historical data...
Loading historical data...

Documentation

Showing up to 5 results
|